HAZ2828 ZBAD-ZSHC

Flight info

Callsign HAZ2828
Flight time 1h 30m
Altitude 37100
Route ELKUR4K ELKUR W40 YQG/K0850S1100 W142 DALIM/K0843S1130 A593 DPX A470 IGRAT IGRAT91
Aircraft A320/M-SDE3FGHIRWY/LB1

Departure

Time 2026-04-15 13:35
Airport Beijing Daxing International Airport (ZBAD)

Arrival

Time 2026-04-15 15:06
Airport Hangzhou Xiaoshan International Airport (ZSHC)
Time Latitude Longitude Altitude Speed Heading
2026-04-15 13:20 39.51303 116.41762 89 ft 0 kts 298°
2026-04-15 13:23 39.51300 116.41767 89 ft 2 kts 298°
2026-04-15 13:23 39.51293 116.41784 89 ft 2 kts 298°
2026-04-15 13:24 39.51286 116.41801 90 ft 2 kts 298°
2026-04-15 13:24 39.51279 116.41818 90 ft 2 kts 298°
2026-04-15 13:24 39.51271 116.41835 90 ft 2 kts 298°
2026-04-15 13:24 39.51264 116.41853 90 ft 2 kts 298°
2026-04-15 13:25 39.51257 116.41869 90 ft 2 kts 323°
2026-04-15 13:25 39.51248 116.41875 90 ft 0 kts 349°
2026-04-15 13:25 39.51241 116.41876 89 ft 0 kts 353°
2026-04-15 13:27 39.51246 116.41875 89 ft 1 kts 353°
2026-04-15 13:27 39.51262 116.41872 89 ft 3 kts 352°
2026-04-15 13:28 39.51290 116.41867 89 ft 3 kts 352°
2026-04-15 13:28 39.51299 116.41866 89 ft 0 kts 352°
2026-04-15 13:28 39.51308 116.41864 89 ft 2 kts 352°
2026-04-15 13:28 39.51330 116.41861 89 ft 4 kts 353°
2026-04-15 13:29 39.51366 116.41868 89 ft 6 kts 33°
2026-04-15 13:29 39.51383 116.41931 89 ft 9 kts 78°
2026-04-15 13:29 39.51398 116.42021 89 ft 11 kts 81°
2026-04-15 13:29 39.51408 116.42129 89 ft 12 kts 84°
2026-04-15 13:30 39.51421 116.42245 89 ft 13 kts 81°
2026-04-15 13:30 39.51433 116.42368 89 ft 14 kts 86°
2026-04-15 13:30 39.51440 116.42497 89 ft 14 kts 77°
2026-04-15 13:30 39.51456 116.42628 89 ft 15 kts 81°
2026-04-15 13:31 39.51469 116.42764 89 ft 15 kts 81°
2026-04-15 13:31 39.51482 116.42889 89 ft 8 kts 82°
2026-04-15 13:31 39.51490 116.42974 89 ft 10 kts 83°
2026-04-15 13:31 39.51499 116.43065 89 ft 6 kts 72°
2026-04-15 13:32 39.51539 116.43099 89 ft 7 kts 12°
2026-04-15 13:32 39.51559 116.43106 89 ft 0 kts 13°
2026-04-15 13:33 39.51562 116.43106 89 ft 1 kts 13°
2026-04-15 13:33 39.51574 116.43110 89 ft 2 kts 13°
2026-04-15 13:33 39.51596 116.43117 89 ft 4 kts 14°
2026-04-15 13:33 39.51632 116.43150 89 ft 8 kts 52°
2026-04-15 13:34 39.51651 116.43222 90 ft 6 kts 99°
2026-04-15 13:34 39.51650 116.43226 89 ft 0 kts 101°
2026-04-15 13:34 39.51615 116.43421 90 ft 57 kts 102°
2026-04-15 13:34 39.51470 116.44233 90 ft 124 kts 103°
2026-04-15 13:35 39.51234 116.45542 170 ft 167 kts 103°
2026-04-15 13:35 39.50972 116.47039 626 ft 178 kts 104°
2026-04-15 13:35 39.50697 116.48664 1137 ft 194 kts 104°
2026-04-15 13:35 39.50438 116.50453 1751 ft 207 kts 103°
2026-04-15 13:36 39.50180 116.52297 2430 ft 214 kts 105°
2026-04-15 13:36 39.49871 116.54198 3133 ft 221 kts 107°
2026-04-15 13:36 39.49491 116.56165 3614 ft 238 kts 110°
2026-04-15 13:36 39.49030 116.58287 4170 ft 255 kts 109°
2026-04-15 13:37 39.48566 116.60560 4663 ft 269 kts 108°
2026-04-15 13:37 39.48113 116.62931 4884 ft 273 kts 107°
2026-04-15 13:37 39.47712 116.65379 5017 ft 280 kts 105°
2026-04-15 13:38 39.46993 116.70264 6803 ft 281 kts 104°
2026-04-15 13:38 39.46628 116.72735 7687 ft 283 kts 104°
2026-04-15 13:38 39.46241 116.75215 8541 ft 285 kts 108°
2026-04-15 13:39 39.45329 116.77441 9349 ft 280 kts 137°
2026-04-15 13:39 39.43741 116.78805 10161 ft 278 kts 160°
2026-04-15 13:39 39.41908 116.79700 10753 ft 289 kts 161°
2026-04-15 13:39 39.39970 116.80653 11149 ft 307 kts 160°
2026-04-15 13:40 39.37937 116.81670 11493 ft 325 kts 160°
2026-04-15 13:40 39.35764 116.82766 11805 ft 342 kts 160°
2026-04-15 13:40 39.33533 116.83896 12255 ft 353 kts 160°
2026-04-15 13:40 39.31198 116.85078 12890 ft 359 kts 160°
2026-04-15 13:41 39.28866 116.86259 13518 ft 363 kts 160°
2026-04-15 13:41 39.26530 116.87442 14104 ft 368 kts 160°
2026-04-15 13:41 39.24112 116.88666 14686 ft 373 kts 160°
2026-04-15 13:41 39.21707 116.89880 15268 ft 377 kts 160°
2026-04-15 13:42 39.19262 116.91114 15837 ft 381 kts 160°
2026-04-15 13:42 39.16783 116.92364 16392 ft 385 kts 161°
2026-04-15 13:42 39.14281 116.93624 16925 ft 389 kts 161°
2026-04-15 13:42 39.11737 116.94904 17461 ft 393 kts 161°
2026-04-15 13:43 39.09164 116.96198 17980 ft 397 kts 161°
2026-04-15 13:43 39.06611 116.97483 18448 ft 401 kts 161°
2026-04-15 13:43 39.03990 116.98800 18966 ft 404 kts 161°
2026-04-15 13:43 39.01354 117.00122 19472 ft 407 kts 161°
2026-04-15 13:44 38.98707 117.01451 19975 ft 410 kts 161°
2026-04-15 13:44 38.96048 117.02784 20473 ft 412 kts 162°
2026-04-15 13:44 38.93393 117.04115 20956 ft 415 kts 162°
2026-04-15 13:44 38.90691 117.05469 21436 ft 417 kts 162°
2026-04-15 13:45 38.87971 117.06645 21872 ft 415 kts 172°
2026-04-15 13:45 38.85109 117.06765 22298 ft 408 kts 192°
2026-04-15 13:45 38.82438 117.05748 22751 ft 402 kts 209°
2026-04-15 13:47 38.71898 116.85362 25629 ft 402 kts 243°
2026-04-15 13:47 38.70580 116.82223 26062 ft 402 kts 243°
2026-04-15 13:47 38.69259 116.79079 26404 ft 403 kts 243°
2026-04-15 13:48 38.67931 116.75926 26727 ft 405 kts 243°
2026-04-15 13:48 38.66593 116.72761 27066 ft 406 kts 243°
2026-04-15 13:48 38.64932 116.69826 27336 ft 413 kts 229°
2026-04-15 13:48 38.62648 116.67595 27620 ft 422 kts 213°
2026-04-15 13:49 38.59890 116.66213 27905 ft 433 kts 198°
2026-04-15 13:49 38.56870 116.65714 28204 ft 440 kts 191°
2026-04-15 13:49 38.53796 116.65359 28438 ft 443 kts 191°
2026-04-15 13:49 38.50721 116.65000 28705 ft 444 kts 191°
2026-04-15 13:50 38.47638 116.64645 29000 ft 444 kts 191°
2026-04-15 13:50 38.44588 116.64293 29234 ft 445 kts 191°
2026-04-15 13:50 38.41494 116.63936 29538 ft 445 kts 191°
2026-04-15 13:50 38.38405 116.63583 29855 ft 444 kts 192°
2026-04-15 13:51 38.35344 116.63284 30184 ft 445 kts 189°
2026-04-15 13:51 38.32249 116.63238 30506 ft 447 kts 185°
2026-04-15 13:51 38.29122 116.63483 30849 ft 450 kts 181°
2026-04-15 13:51 38.26018 116.64012 31171 ft 453 kts 177°
2026-04-15 13:52 38.22907 116.64841 31426 ft 458 kts 173°
2026-04-15 13:52 38.19862 116.65916 31680 ft 461 kts 171°
2026-04-15 13:52 38.16768 116.67073 31924 ft 461 kts 170°
2026-04-15 13:52 38.13708 116.68220 32137 ft 462 kts 170°
2026-04-15 13:53 38.10611 116.69378 32336 ft 464 kts 170°
2026-04-15 13:53 38.07502 116.70556 32530 ft 465 kts 170°
2026-04-15 13:53 38.04443 116.71723 32742 ft 465 kts 170°
2026-04-15 13:53 38.01327 116.72913 32941 ft 466 kts 170°
2026-04-15 13:54 37.95127 116.75277 33040 ft 467 kts 170°
2026-04-15 13:54 37.88905 116.77644 33042 ft 467 kts 170°
2026-04-15 13:55 37.82684 116.80004 33046 ft 466 kts 170°
2026-04-15 13:55 37.76462 116.82361 33044 ft 466 kts 170°
2026-04-15 13:56 37.70265 116.84701 33049 ft 466 kts 170°
2026-04-15 13:56 37.64019 116.86979 33045 ft 471 kts 173°
2026-04-15 13:57 37.57606 116.88801 33049 ft 474 kts 174°
2026-04-15 13:57 37.51150 116.90587 33037 ft 474 kts 174°
2026-04-15 13:58 37.44676 116.92409 33047 ft 475 kts 174°
2026-04-15 13:58 37.38254 116.94230 33052 ft 475 kts 174°
2026-04-15 13:59 37.31821 116.96058 33059 ft 474 kts 174°
2026-04-15 13:59 37.25355 116.97890 33057 ft 475 kts 174°
2026-04-15 14:00 37.18966 116.99700 33055 ft 473 kts 174°
2026-04-15 14:00 37.12569 117.01509 33069 ft 472 kts 174°
2026-04-15 14:01 37.02943 117.04224 33063 ft 471 kts 174°
2026-04-15 14:02 36.96546 117.06024 33067 ft 471 kts 174°
2026-04-15 14:02 36.90169 117.07815 33068 ft 472 kts 174°
2026-04-15 14:03 36.83751 117.09611 33071 ft 473 kts 174°
2026-04-15 14:03 36.77330 117.11409 33071 ft 473 kts 174°
2026-04-15 14:04 36.70898 117.13208 33074 ft 473 kts 174°
2026-04-15 14:04 36.64502 117.14992 33083 ft 474 kts 174°
2026-04-15 14:05 36.58041 117.16794 33088 ft 473 kts 174°
2026-04-15 14:05 36.51622 117.18580 33099 ft 474 kts 174°
2026-04-15 14:06 36.45202 117.20363 33110 ft 473 kts 174°
2026-04-15 14:06 36.38835 117.22405 33108 ft 478 kts 170°
2026-04-15 14:07 36.32438 117.24783 33095 ft 479 kts 170°
2026-04-15 14:07 36.26090 117.27138 33088 ft 480 kts 170°
2026-04-15 14:08 36.19651 117.29530 33080 ft 481 kts 170°
2026-04-15 14:08 36.13278 117.31893 33084 ft 482 kts 170°
2026-04-15 14:09 36.06844 117.34274 33087 ft 481 kts 170°
2026-04-15 14:09 36.00415 117.36649 33088 ft 481 kts 170°
2026-04-15 14:10 35.94033 117.39027 33085 ft 481 kts 170°
2026-04-15 14:10 35.87614 117.41433 33092 ft 482 kts 169°
2026-04-15 14:11 35.81208 117.43828 33093 ft 484 kts 170°
2026-04-15 14:11 35.74729 117.46246 33094 ft 485 kts 170°
2026-04-15 14:12 35.68299 117.48641 33094 ft 484 kts 169°
2026-04-15 14:12 35.61878 117.51028 33098 ft 485 kts 170°
2026-04-15 14:13 35.55387 117.53439 33097 ft 486 kts 170°
2026-04-15 14:13 35.48927 117.55833 33098 ft 486 kts 170°
2026-04-15 14:14 35.42462 117.58225 33086 ft 486 kts 169°
2026-04-15 14:14 35.36004 117.60611 33094 ft 487 kts 170°
2026-04-15 14:15 35.29518 117.63003 33102 ft 487 kts 170°
2026-04-15 14:15 35.23027 117.65392 33107 ft 486 kts 170°
2026-04-15 14:16 35.16558 117.67769 33100 ft 488 kts 170°
2026-04-15 14:16 35.10064 117.70155 33106 ft 487 kts 170°
2026-04-15 14:17 35.03530 117.72546 33102 ft 489 kts 171°
2026-04-15 14:17 34.97051 117.74918 33098 ft 489 kts 171°
2026-04-15 14:18 34.90534 117.77303 33105 ft 488 kts 170°
2026-04-15 14:18 34.84049 117.79673 33105 ft 487 kts 170°
2026-04-15 14:19 34.77558 117.82036 33103 ft 488 kts 171°
2026-04-15 14:19 34.71017 117.84385 33103 ft 489 kts 171°
2026-04-15 14:20 34.64542 117.86710 33107 ft 488 kts 171°
2026-04-15 14:20 34.58007 117.89056 33107 ft 488 kts 170°
2026-04-15 14:21 34.51515 117.91383 33110 ft 488 kts 171°
2026-04-15 14:21 34.45006 117.93713 33107 ft 488 kts 171°
2026-04-15 14:22 34.38506 117.96034 33113 ft 489 kts 170°
2026-04-15 14:22 34.31970 117.98366 33111 ft 488 kts 170°
2026-04-15 14:23 34.25447 118.00697 33108 ft 489 kts 170°
2026-04-15 14:23 34.18959 118.03062 33108 ft 490 kts 169°
2026-04-15 14:24 34.12439 118.05444 33111 ft 489 kts 170°
2026-04-15 14:24 34.05911 118.07817 33108 ft 491 kts 170°
2026-04-15 14:25 33.99381 118.10187 33105 ft 488 kts 169°
2026-04-15 14:25 33.92908 118.12547 33097 ft 487 kts 170°
2026-04-15 14:26 33.86393 118.14912 33096 ft 489 kts 169°
2026-04-15 14:26 33.79868 118.17283 33094 ft 488 kts 169°
2026-04-15 14:27 33.73391 118.19643 33095 ft 487 kts 169°
2026-04-15 14:27 33.66909 118.22002 33094 ft 486 kts 169°
2026-04-15 14:28 33.60464 118.24345 33094 ft 486 kts 169°
2026-04-15 14:28 33.53994 118.26691 33094 ft 486 kts 169°
2026-04-15 14:29 33.47525 118.29034 33095 ft 486 kts 169°
2026-04-15 14:29 33.41042 118.31381 33095 ft 483 kts 169°
2026-04-15 14:30 33.34624 118.33697 33096 ft 485 kts 169°
2026-04-15 14:30 33.28141 118.36034 33094 ft 485 kts 169°
2026-04-15 14:31 33.21711 118.38348 33090 ft 485 kts 169°
2026-04-15 14:31 33.15253 118.40674 33086 ft 485 kts 169°
2026-04-15 14:32 33.08790 118.43001 33083 ft 483 kts 169°
2026-04-15 14:32 33.02391 118.45300 33082 ft 481 kts 169°
2026-04-15 14:33 32.95973 118.47603 33077 ft 483 kts 169°
2026-04-15 14:33 32.89532 118.49908 33078 ft 483 kts 169°
2026-04-15 14:34 32.83099 118.52213 33076 ft 483 kts 169°
2026-04-15 14:34 32.76690 118.54504 33073 ft 483 kts 169°
2026-04-15 14:35 32.70234 118.56807 33072 ft 482 kts 169°
2026-04-15 14:35 32.63855 118.59415 33071 ft 487 kts 165°
2026-04-15 14:36 32.57529 118.62300 33077 ft 488 kts 165°
2026-04-15 14:36 32.51200 118.65187 33078 ft 487 kts 165°
2026-04-15 14:37 32.44863 118.68069 33069 ft 487 kts 165°
2026-04-15 14:37 32.38570 118.70924 33075 ft 487 kts 166°
2026-04-15 14:38 32.32254 118.73786 33088 ft 487 kts 166°
2026-04-15 14:38 32.25906 118.76661 33085 ft 485 kts 166°
2026-04-15 14:39 32.19608 118.79508 33077 ft 486 kts 166°
2026-04-15 14:39 32.13284 118.82361 33080 ft 486 kts 166°
2026-04-15 14:40 32.06970 118.85207 33094 ft 487 kts 166°
2026-04-15 14:40 32.00672 118.88041 33088 ft 486 kts 166°
2026-04-15 14:41 31.94373 118.90873 33096 ft 485 kts 166°
2026-04-15 14:41 31.88063 118.93705 33098 ft 485 kts 166°
2026-04-15 14:42 31.81722 118.96545 33096 ft 486 kts 166°
2026-04-15 14:42 31.75406 118.99380 33029 ft 487 kts 166°
2026-04-15 14:42 31.72267 119.00788 32781 ft 484 kts 166°
2026-04-15 14:43 31.69141 119.02198 32512 ft 472 kts 166°
2026-04-15 14:43 31.66107 119.03526 32261 ft 468 kts 168°
2026-04-15 14:43 31.63020 119.04831 32000 ft 465 kts 168°
2026-04-15 14:43 31.59996 119.06200 31752 ft 468 kts 165°
2026-04-15 14:44 31.57058 119.07766 31512 ft 471 kts 161°
2026-04-15 14:44 31.54116 119.09570 31251 ft 476 kts 158°
2026-04-15 14:44 31.51262 119.11532 31005 ft 479 kts 155°
2026-04-15 14:44 31.48468 119.13665 30753 ft 483 kts 152°
2026-04-15 14:45 31.45738 119.15965 30502 ft 485 kts 150°
2026-04-15 14:45 31.43029 119.18355 30248 ft 486 kts 149°
2026-04-15 14:45 31.40341 119.20729 30002 ft 486 kts 149°
2026-04-15 14:45 31.37641 119.23108 29635 ft 488 kts 149°
2026-04-15 14:46 31.34938 119.25478 28954 ft 489 kts 149°
2026-04-15 14:46 31.32218 119.27864 28335 ft 483 kts 149°
2026-04-15 14:46 31.29542 119.30209 27820 ft 479 kts 149°
2026-04-15 14:46 31.26891 119.32529 27281 ft 474 kts 149°
2026-04-15 14:47 31.24285 119.34806 26737 ft 470 kts 149°
2026-04-15 14:47 31.21685 119.37076 26181 ft 465 kts 149°
2026-04-15 14:47 31.19091 119.39338 25617 ft 461 kts 149°
2026-04-15 14:47 31.16543 119.41563 25053 ft 456 kts 149°
2026-04-15 14:48 31.14046 119.43743 24503 ft 451 kts 149°
2026-04-15 14:48 31.11534 119.45940 23949 ft 447 kts 148°
2026-04-15 14:48 31.09075 119.48086 23404 ft 444 kts 148°
2026-04-15 14:48 31.06606 119.50238 22851 ft 440 kts 148°
2026-04-15 14:49 31.04157 119.52374 22304 ft 437 kts 148°
2026-04-15 14:49 31.01730 119.54491 21748 ft 434 kts 148°
2026-04-15 14:49 30.99347 119.56568 21199 ft 432 kts 148°
2026-04-15 14:49 30.96930 119.58672 20634 ft 429 kts 148°
2026-04-15 14:50 30.94556 119.60738 20071 ft 428 kts 148°
2026-04-15 14:50 30.92163 119.62817 19488 ft 426 kts 148°
2026-04-15 14:50 30.89802 119.64867 18920 ft 425 kts 148°
2026-04-15 14:50 30.87450 119.66911 18345 ft 423 kts 148°
2026-04-15 14:51 30.85090 119.68959 17764 ft 420 kts 148°
2026-04-15 14:51 30.82760 119.70979 17212 ft 418 kts 148°
2026-04-15 14:51 30.80448 119.72981 16643 ft 415 kts 148°
2026-04-15 14:51 30.78131 119.74986 16088 ft 413 kts 147°
2026-04-15 14:52 30.75831 119.76975 15522 ft 411 kts 147°
2026-04-15 14:52 30.73586 119.78918 15088 ft 403 kts 147°
2026-04-15 14:52 30.71347 119.80860 14536 ft 402 kts 146°
2026-04-15 14:52 30.69119 119.82864 13897 ft 402 kts 145°
2026-04-15 14:53 30.66945 119.84857 13303 ft 399 kts 144°
2026-04-15 14:53 30.64741 119.86795 12715 ft 395 kts 148°
2026-04-15 14:53 30.62446 119.88509 12163 ft 389 kts 152°
2026-04-15 14:53 30.60127 119.90014 11612 ft 383 kts 154°
2026-04-15 14:54 30.57807 119.91484 11049 ft 379 kts 154°
2026-04-15 14:54 30.55512 119.92933 10678 ft 368 kts 154°
2026-04-15 14:54 30.53323 119.94321 10477 ft 344 kts 154°
2026-04-15 14:54 30.51297 119.95606 10276 ft 320 kts 154°
2026-04-15 14:55 30.49401 119.96807 10118 ft 307 kts 154°
2026-04-15 14:55 30.47558 119.97973 9954 ft 296 kts 154°
2026-04-15 14:55 30.45729 119.99126 9301 ft 305 kts 153°
2026-04-15 14:55 30.43881 120.00291 8977 ft 300 kts 153°
2026-04-15 14:56 30.42050 120.01450 8625 ft 296 kts 153°
2026-04-15 14:56 30.40273 120.02574 8143 ft 289 kts 152°
2026-04-15 14:56 30.38529 120.03677 7654 ft 281 kts 152°
2026-04-15 14:56 30.36828 120.04754 7158 ft 273 kts 152°
2026-04-15 14:57 30.35205 120.05782 6667 ft 266 kts 152°
2026-04-15 14:57 30.33602 120.06795 6382 ft 260 kts 152°
2026-04-15 14:57 30.32007 120.07803 5921 ft 258 kts 151°
2026-04-15 14:57 30.30448 120.08787 5428 ft 252 kts 150°
2026-04-15 14:58 30.28918 120.09752 4834 ft 249 kts 150°
2026-04-15 14:58 30.27414 120.10700 4238 ft 247 kts 150°
2026-04-15 14:58 30.25922 120.11640 3864 ft 237 kts 149°
2026-04-15 14:58 30.24503 120.12534 3562 ft 231 kts 149°
2026-04-15 14:59 30.23101 120.13400 3263 ft 226 kts 149°
2026-04-15 14:59 30.21729 120.14232 2968 ft 217 kts 148°
2026-04-15 14:59 30.20450 120.15034 2867 ft 198 kts 145°
2026-04-15 14:59 30.19374 120.15867 2858 ft 180 kts 140°
2026-04-15 15:00 30.18376 120.16740 2937 ft 179 kts 139°
2026-04-15 15:00 30.17382 120.17612 2895 ft 179 kts 139°
2026-04-15 15:00 30.16376 120.18483 2885 ft 179 kts 140°
2026-04-15 15:00 30.15401 120.19372 2869 ft 178 kts 130°
2026-04-15 15:01 30.15005 120.20656 2846 ft 174 kts 85°
2026-04-15 15:01 30.15379 120.21984 2878 ft 177 kts 66°
2026-04-15 15:01 30.15961 120.23235 2873 ft 178 kts 63°
2026-04-15 15:01 30.16572 120.24486 2871 ft 178 kts 63°
2026-04-15 15:02 30.17165 120.25748 2833 ft 178 kts 64°
2026-04-15 15:02 30.17721 120.26980 2621 ft 170 kts 64°
2026-04-15 15:02 30.18242 120.28159 2387 ft 159 kts 65°
2026-04-15 15:02 30.18732 120.29279 2175 ft 154 kts 65°
2026-04-15 15:03 30.19216 120.30386 1984 ft 153 kts 65°
2026-04-15 15:03 30.19673 120.31428 1808 ft 140 kts 65°
2026-04-15 15:03 30.20107 120.32415 1618 ft 135 kts 65°
2026-04-15 15:03 30.20532 120.33384 1442 ft 134 kts 65°
2026-04-15 15:04 30.20955 120.34345 1265 ft 134 kts 65°
2026-04-15 15:04 30.21379 120.35305 1086 ft 134 kts 65°
2026-04-15 15:04 30.21804 120.36263 907 ft 133 kts 64°
2026-04-15 15:04 30.22228 120.37213 717 ft 133 kts 62°
2026-04-15 15:05 30.22643 120.38173 559 ft 133 kts 63°
2026-04-15 15:05 30.23066 120.39114 369 ft 132 kts 63°
2026-04-15 15:05 30.23483 120.40055 185 ft 131 kts 64°
2026-04-15 15:05 30.23892 120.40991 39 ft 130 kts 64°
2026-04-15 15:06 30.24482 120.42326 29 ft 49 kts 62°
2026-04-15 15:06 30.24554 120.42590 29 ft 31 kts 86°
2026-04-15 15:06 30.24558 120.42757 29 ft 11 kts 97°
2026-04-15 15:07 30.24502 120.42787 29 ft 6 kts 208°
2026-04-15 15:07 30.24467 120.42746 29 ft 7 kts 200°
2026-04-15 15:07 30.24412 120.42766 29 ft 9 kts 153°
2026-04-15 15:07 30.24350 120.42802 29 ft 10 kts 154°
2026-04-15 15:08 30.24306 120.42801 29 ft 7 kts 210°
2026-04-15 15:08 30.24255 120.42802 29 ft 8 kts 150°
2026-04-15 15:08 30.24198 120.42838 29 ft 10 kts 150°
2026-04-15 15:08 30.24137 120.42874 29 ft 4 kts 153°
2026-04-15 15:09 30.24113 120.42872 29 ft 3 kts 229°
2026-04-15 15:09 30.24097 120.42841 29 ft 4 kts 242°
2026-04-15 15:09 30.24092 120.42828 29 ft 0 kts 243°